Miscellaneous Local Product
Issued by NWS North Platte, NE

Home | Current Version | Previous Version | Graphics & Text | Print | Product List | Glossary On
Versions: 1 2 3 4 5 6 7 8 9 10 11 12 13 14 15 16 17 18 19 20 21 22 23 24 25 26 27 28 29 30 31 32 33 34 35 36 37 38 39 40 41 42 43 44 45 46 47 48 49 50
000
AXUS43 KLBF 012310
MISLBF


WESTERN AND NORTH CENTRAL NEBRASKA HOURLY WEATHER ROUNDUP
NATIONAL WEATHER SERVICE NORTH PLATTE NE
500 PM CST SUN MAR 01 2015

***STATIONS NOT REPORTING VARIABLES SUCH AS SKY/WEATHER OR
PRESSURE ARE PROVIDED BY THE NEBRASKA DEPARTMENT OF
ROADS...RAWS...AND APRS NETWORKS...AND ARE NOT UNDER
NATIONAL WEATHER SERVICE QUALITY CONTROL***

...OBSERVATIONS IN AND NEAR THE EASTERN PANHANDLE OF NEBRASKA...

CITY           SKY/WX    TMP DP  RH WIND       PRES   REMARKS
PINE RIDGE     SUNNY     34   5  29 CALM      30.25R
CHADRON        SUNNY     34   7  32 NW13      30.27R WCI  25
ALLIANCE       SUNNY     34   8  33 W3        30.24S
SIDNEY         SUNNY     32  12  43 N3        30.25S
WHITECLAY        N/A     32   3  29 W10         N/A  WCI  24
CRESCENT LAKE    N/A     35   7  31 NW9         N/A  WCI  28
LISCO            N/A     37   5  25 W5          N/A  WCI  33
BIG SPRINGS      N/A     38  16  40 N5          N/A  WCI  34
LEWELLEN         N/A     37   6  26 SW5         N/A  WCI  34
$$

...OBSERVATIONS IN NORTH CENTRAL NEBRASKA...

CITY           SKY/WX    TMP DP  RH WIND       PRES   REMARKS
VALENTINE      MOSUNNY   34   5  29 NW15G22   30.31R WCI  24
THEDFORD       SUNNY     37  11  33 NW10G17   30.29S WCI  30
AINSWORTH      MOSUNNY   33   6  32 NW15      30.31R WCI  23
O`NEILL        PTSUNNY   35  10  34 NW16      30.33R WCI  25
ORD            MOSUNNY   38  10  31 NW13      30.32R WCI  30
BROKEN BOW     MOSUNNY   39  13  34 NW10      30.30R WCI  32
BROWNLEE         N/A     34   5  29 NW14        N/A  WCI  25
SPRINGVIEW       N/A     34   9  35 W9G18       N/A  WCI  27
BREWSTER         N/A     37   9  31 NW14        N/A  WCI  28
ROSE             N/A     36  15  41 SW7         N/A  WCI  31
NEWPORT          N/A     36   9  32 W14         N/A  WCI  27
SARGENT          N/A     38  14  37 NW3G12      N/A
COMSTOCK         N/A     40  12  30 NW6         N/A
CHAMBERS         N/A     35   9  34 W6G13       N/A  WCI  30
EWING            N/A     36  12  37 W12         N/A  WCI  28
$$

...OBSERVATIONS IN SOUTHWEST NEBRASKA AND FAR NORTHEAST COLORADO...

CITY           SKY/WX    TMP DP  RH WIND       PRES   REMARKS
WRAY           FAIR      36  14  40 N8        30.29R WCI  29
IMPERIAL         N/A     37  12  35 N6        30.29R WCI  32
OGALLALA       SUNNY     37  11  35 N6        30.29R WCI  32
NORTH PLATTE   SUNNY     39  11  31 W9        30.29S WCI  33
MCCOOK         PTSUNNY   40   9  28 N6        30.30S
LEXINGTON      SUNNY     39  12  33 NW5       30.31S
PAXTON           N/A     38  17  41 N3          N/A
BRADY            N/A     39  14  36 CALM        N/A
GOTHENBURG       N/A     38  12  34 NW7         N/A  WCI  33
CALLAWAY         N/A     38  15  40 NW9         N/A  WCI  31
$$

...NORTH PLATTE AREA...

CITY           SKY/WX    TMP DP  RH WIND       PRES   REMARKS
AIRPORT        SUNNY     39  11  31 W9        30.29S WCI  33
DOWNTOWN         N/A     39  14  36 NW3         N/A
$$

...SOME WEATHER OBSERVATIONS FROM AROUND THE REGION...

CITY           SKY/WX    TMP DP  RH WIND       PRES   REMARKS
DENVER         PTSUNNY   25  15  66 CALM      30.22S
LARAMIE        CLOUDY    18  11  74 W5        30.09S WCI  11
CHEYENNE       CLOUDY    23  13  65 SW8       30.17R WCI  14
SCOTTSBLUFF    SUNNY     34  10  37 SW7       30.25S WCI  28
RAPID CITY     SUNNY     26  12  55 N23       30.25R WCI  11
PIERRE         MOSUNNY   33   9  36 NW22      30.31R WCI  21
WINNER         FAIR      32   5  32 NW13G23   30.32R WCI  22
SIOUX FALLS    MOSUNNY   30  16  56 NW17G26   30.30R WCI  18
OMAHA          MOSUNNY   39  16  39 NW12      30.35S WCI  32
GRAND ISLAND   SUNNY     39  13  34 N10G18    30.33S WCI  32
KANSAS CITY    PTSUNNY   32  21  64 NW7       30.38R WCI  26
WICHITA        MOSUNNY   31  19  61 NE8       30.38S WCI  23
HAYS           PTSUNNY   34  14  44 N3        30.35S
LIBERAL        CLOUDY    28  21  74 NE8       30.32F WCI  20
GOODLAND       CLOUDY    33  16  49 NE8       30.27S WCI  26
$$



USA.gov is the U.S. government's official web portal to all federal, state and local government web resources and services.